Seldovia, AK

3:17 PM AKDT on June 28, 2017 (GMT -0800)
Seldovia

Weather History for PASO - January, 2014

Change the Weather History Date:

Thursday, January 16, 2014

  Actual Average (PAHO) Record (PAHO)
Temperature  
Mean Temperature 33 °F -  
Max Temperature 36 °F 29 °F 46 °F (2009)
Min Temperature 30 °F 18 °F -14 °F (1973)
Degree Days  
Heating Degree Days 32    
Moisture  
Dew Point 31 °F    
Average Humidity 99    
Maximum Humidity 100    
Minimum Humidity 93    
Precipitation  
Precipitation 0.23 in - - ()
Sea Level Pressure  
Sea Level Pressure 29.49 in    
Wind  
Wind Speed 1 mph (North)    
Max Wind Speed 8 mph    
Max Gust Speed -    
Visibility 4 miles    
Events Fog , Rain , Snow    
Averages and records for this station are not official NWS values.
T = Trace of Precipitation, MM = Missing Value Source: NWS Daily Summary

Daily Weather History Graph

Daily Weather History Graph

Search for Another Location

Airport or City:

Trip Planner

Search our weather history database for the weather conditions in past years. The results will help you decide how hot, cold, wet, or windy it might be!

Date:

Astronomy

Jan. 16, 2014 Rise Set
Actual Time 9:48 AM AKST 4:45 PM AKST
Civil Twilight 8:57 AM AKST 5:36 PM AKST
Nautical Twilight 8:04 AM AKST 6:29 PM AKST
Astronomical Twilight 7:15 AM AKST 7:18 PM AKST
Moon 6:16 PM AKST (1/16) 9:21 AM AKST (1/16)
Length of Visible Light 8h 39m
Length of Day
6h 57m
Full, 100% of the Moon is Illuminated
Jan 16
Full
Jan 23
Last Quarter
Jan 30
New
Feb 6
First Quarter
Feb 14
Full

Hourly Weather History & Observations

Time (AKST) Temp. Windchill Dew Point Humidity Pressure Visibility Wind Dir Wind Speed Gust Speed Precip Events Conditions
12:53 AM 34.0 °F - 34.0 °F 100% 29.44 in 5.0 mi Calm Calm - N/A   Overcast
1:49 AM 35.6 °F 31.7 °F 33.8 °F 93% 29.40 in 6.0 mi North 4.6 mph - 0.02 in Rain Rain
1:53 AM 36.0 °F 32.1 °F 35.1 °F 97% 29.40 in 5.0 mi North 4.6 mph - 0.03 in Rain Rain
2:08 AM 35.6 °F - 35.6 °F 100% 29.39 in 5.0 mi Calm Calm - 0.03 in Rain Rain
2:44 AM 33.8 °F 28.6 °F 33.8 °F 100% 29.38 in 5.0 mi Variable 5.8 mph - 0.10 in Rain Rain
3:05 AM 33.8 °F 28.6 °F 33.8 °F 100% 29.38 in 4.0 mi Variable 5.8 mph - 0.01 in Snow Light Snow
3:10 AM 33.8 °F 28.6 °F 32.0 °F 93% 29.38 in 1.8 mi North 5.8 mph - 0.02 in Snow Light Snow
3:23 AM 32.0 °F - 32.0 °F 100% 29.38 in 0.8 mi Calm Calm - 0.05 in Snow Light Snow
3:34 AM 32.0 °F - 32.0 °F 100% 29.37 in 1.2 mi Calm Calm - 0.08 in Snow Light Snow
3:46 AM 32.0 °F - 32.0 °F 100% 29.37 in 2.5 mi Calm Calm - 0.10 in Snow Light Snow
3:53 AM 32.0 °F 26.4 °F 32.0 °F 100% 29.37 in 3.0 mi Variable 5.8 mph - 0.11 in   Overcast
4:01 AM 33.8 °F 27.0 °F 33.8 °F 100% 29.37 in 4.0 mi North 8.1 mph - 0.02 in Rain Rain
4:15 AM 33.8 °F 27.0 °F 33.8 °F 100% 29.36 in 5.0 mi North 8.1 mph - 0.04 in Rain Light Rain
4:53 AM 32.0 °F - 32.0 °F 100% 29.34 in 8.0 mi Calm Calm - 0.07 in Rain Light Rain
5:53 AM 33.1 °F - 33.1 °F 100% 29.37 in 10.0 mi Calm Calm - 0.02 in Rain Light Rain
6:28 AM 32.0 °F - 32.0 °F 100% 29.35 in 10.0 mi Calm Calm - 0.00 in   Mostly Cloudy
6:38 AM 32.0 °F - 32.0 °F 100% 29.34 in 9.0 mi Calm Calm - 0.00 in   Mostly Cloudy
6:50 AM 32.0 °F - 32.0 °F 100% 29.35 in 1.8 mi Calm Calm - 0.00 in   Mostly Cloudy
6:53 AM 32.0 °F - 32.0 °F 100% 29.36 in 1.2 mi Calm Calm - 0.00 in   Mostly Cloudy
7:18 AM 30.2 °F - 30.2 °F 100% 29.36 in 2.0 mi Calm Calm - N/A   Mostly Cloudy
7:33 AM 32.0 °F - 32.0 °F 100% 29.37 in 4.0 mi Calm Calm - N/A   Mostly Cloudy
7:44 AM 32.0 °F - 32.0 °F 100% 29.39 in 10.0 mi Calm Calm - N/A   Scattered Clouds
7:53 AM 32.0 °F - 30.9 °F 96% 29.39 in 10.0 mi Calm Calm - N/A   Partly Cloudy
8:23 AM 30.2 °F - 30.2 °F 100% 29.45 in 10.0 mi Calm Calm - N/A   Partly Cloudy
8:53 AM 30.9 °F - 30.9 °F 100% 29.45 in 9.0 mi Calm Calm - N/A   Scattered Clouds
9:53 AM 30.9 °F - 30.0 °F 96% 29.49 in 5.0 mi Calm Calm - N/A   Scattered Clouds
10:15 AM 30.2 °F - 30.2 °F 100% 29.50 in 2.5 mi Calm Calm - N/A   Mostly Cloudy
10:19 AM 30.2 °F - 30.2 °F 100% 29.50 in 0.8 mi Calm Calm - N/A   Mist
10:29 AM 30.2 °F - 30.2 °F 100% 29.51 in 1.5 mi Calm Calm - N/A   Scattered Clouds
10:31 AM 30.2 °F - 30.2 °F 100% 29.51 in 4.0 mi Calm Calm - N/A   Scattered Clouds
10:44 AM 30.2 °F - 28.4 °F 93% 29.51 in 1.5 mi Calm Calm - N/A   Partly Cloudy
10:46 AM 30.2 °F - 30.2 °F 100% 29.51 in 0.8 mi Calm Calm - N/A   Mist
10:53 AM 30.0 °F - 28.9 °F 96% 29.52 in 0.8 mi Calm Calm - N/A   Mist
10:58 AM 30.2 °F - 30.2 °F 100% 29.51 in 2.0 mi Calm Calm - N/A   Mostly Cloudy
11:09 AM 30.2 °F - 30.2 °F 100% 29.51 in 0.8 mi Calm Calm - N/A   Mist
11:29 AM 30.2 °F - 30.2 °F 100% 29.53 in 0.2 mi Calm Calm - N/A Fog Light Freezing Fog
11:31 AM 30.2 °F - 30.2 °F 100% 29.53 in 0.5 mi Calm Calm - N/A Fog Light Freezing Fog
11:40 AM 30.2 °F - 30.2 °F 100% 29.54 in 2.0 mi Calm Calm - N/A   Mostly Cloudy
11:50 AM 30.2 °F - 30.2 °F 100% 29.53 in 1.5 mi Calm Calm - N/A   Scattered Clouds
11:53 AM 30.9 °F 27.5 °F 30.9 °F 100% 29.53 in 1.5 mi North 3.5 mph - N/A   Scattered Clouds
11:57 AM 30.2 °F - 30.2 °F 100% 29.54 in 3.0 mi Calm Calm - N/A   Scattered Clouds
12:02 PM 30.2 °F - 30.2 °F 100% 29.55 in 1.8 mi Calm Calm - N/A   Partly Cloudy
12:18 PM 33.8 °F - 32.0 °F 93% 29.55 in 4.0 mi Calm Calm - N/A   Clear
12:41 PM 32.0 °F - 30.2 °F 93% 29.55 in 8.0 mi Calm Calm - N/A   Scattered Clouds
12:53 PM 32.0 °F - 32.0 °F 100% 29.55 in 6.0 mi Calm Calm - N/A   Scattered Clouds
12:59 PM 32.0 °F - 32.0 °F 100% 29.55 in 2.5 mi Calm Calm - N/A   Mostly Cloudy
1:21 PM 32.0 °F - 32.0 °F 100% 29.57 in 10.0 mi Calm Calm - N/A   Mostly Cloudy
1:31 PM 33.8 °F - 33.8 °F 100% 29.57 in 10.0 mi Calm Calm - N/A   Scattered Clouds
1:53 PM 32.0 °F - 32.0 °F 100% 29.57 in 8.0 mi Calm Calm - N/A   Scattered Clouds
2:29 PM 32.0 °F - 30.2 °F 93% 29.56 in 1.2 mi Calm Calm - N/A   Partly Cloudy
2:32 PM 32.0 °F - 30.2 °F 93% 29.56 in 0.8 mi Calm Calm - N/A   Mist
2:53 PM 32.0 °F - 32.0 °F 100% 29.58 in 1.2 mi Calm Calm - N/A   Mostly Cloudy
3:10 PM 32.0 °F - 30.2 °F 93% 29.58 in 0.2 mi Calm Calm - N/A Fog Fog
3:53 PM 30.9 °F - 30.9 °F 100% 29.60 in 0.2 mi Calm Calm - N/A Fog Light Freezing Fog
4:18 PM 32.0 °F - 30.2 °F 93% 29.61 in 0.5 mi Calm Calm - N/A Fog Fog
4:29 PM 30.2 °F - 30.2 °F 100% 29.61 in 2.0 mi Calm Calm - N/A   Mostly Cloudy
4:38 PM 30.2 °F - 30.2 °F 100% 29.62 in 3.0 mi Calm Calm - N/A   Mostly Cloudy
4:42 PM 30.2 °F - 30.2 °F 100% 29.62 in 1.8 mi Calm Calm - N/A   Mostly Cloudy
4:53 PM 32.0 °F - 30.9 °F 96% 29.62 in 2.5 mi Calm Calm - N/A   Scattered Clouds
4:55 PM 32.0 °F - 30.2 °F 93% 29.62 in 3.0 mi Calm Calm - N/A   Mostly Cloudy
5:31 PM 32.0 °F - 32.0 °F 100% 29.63 in 6.0 mi Calm Calm - N/A   Scattered Clouds
5:53 PM 32.0 °F - 30.9 °F 96% 29.62 in 6.0 mi Calm Calm - N/A   Scattered Clouds
6:53 PM 30.9 °F - 30.9 °F 100% 29.61 in 7.0 mi Calm Calm - N/A   Partly Cloudy
7:53 PM 30.9 °F - 30.9 °F 100% 29.58 in 4.0 mi Calm Calm - N/A   Scattered Clouds
8:53 PM 30.9 °F - 30.9 °F 100% 29.55 in 5.0 mi Calm Calm - N/A   Scattered Clouds
9:37 PM 30.2 °F - 30.2 °F 100% 29.52 in 2.0 mi Calm Calm - N/A   Mostly Cloudy
9:45 PM 30.2 °F - 30.2 °F 100% 29.51 in 5.0 mi Calm Calm - N/A   Mostly Cloudy
9:53 PM 30.9 °F - 30.9 °F 100% 29.50 in 4.0 mi Calm Calm - N/A   Mostly Cloudy
10:06 PM 30.2 °F - 30.2 °F 100% 29.49 in 2.5 mi Calm Calm - N/A   Mostly Cloudy
10:20 PM 30.2 °F - 30.2 °F 100% 29.49 in 1.5 mi Calm Calm - N/A   Mostly Cloudy
10:24 PM 30.2 °F - 30.2 °F 100% 29.48 in 3.0 mi Calm Calm - N/A   Mostly Cloudy
10:35 PM 30.2 °F - 30.2 °F 100% 29.47 in 8.0 mi Calm Calm - N/A   Scattered Clouds
10:53 PM 30.9 °F 26.2 °F 30.9 °F 100% 29.47 in 7.0 mi SSW 4.6 mph - N/A   Scattered Clouds
11:53 PM 30.9 °F - 30.9 °F 100% 29.41 in 9.0 mi Calm Calm - N/A   Scattered Clouds